This demonstration page uses our WeatherBlox Daily Observations layout. Learn more.

Left ArrowRight Arrow

Hourly Observations for July 18, 2022

Temp ( °F °C ) Dew Point ( °F °C ) Humidity (%) Winds ( mph kmh ) Pressure ( in mb ) Visibility ( mi km ) Precip ( " mm )
12:52 am 00:52 Clear 72 22.2 69 20.6 91 91 W 6 9 29.93 1014 10 16 0.00 0.00
1:52 am 01:52 Clear 72 22.2 69 20.6 91 91 E 3 6 29.92 1013 10 16 0.00 0.00
2:52 am 02:52 Clear 71 21.7 68 20 90 90 Calm 29.93 1014 10 16 0.00 0.00
3:52 am 03:52 Clear 70 21.1 68 20 93 93 E 3 6 29.93 1014 10 16 0.00 0.00
4:52 am 04:52 Clear 71 21.7 68 20 90 90 ESE 3 6 29.93 1014 10 16 0.00 0.00
5:52 am 05:52 Clear 70 21.1 68 20 93 93 SE 6 9 29.94 1014 10 16 0.00 0.00
6:52 am 06:52 Sunny 70 21.1 68 20 93 93 SSE 6 9 29.96 1015 10 16 0.00 0.00
7:52 am 07:52 Sunny 73 22.8 69 20.6 87 87 SSE 7 11 29.97 1015 10 16 0.00 0.00
8:52 am 08:52 Sunny 78 25.6 69 20.6 74 74 S 5 7 29.97 1015 10 16 0.00 0.00
9:52 am 09:52 Sunny 81 27.2 69 20.6 67 67 SW 5 7 29.96 1015 10 16 0.00 0.00
10:52 am 10:52 Sunny 84 28.9 69 20.6 61 61 S 9 15 29.95 1014 10 16 0.00 0.00
11:52 am 11:52 Mostly Sunny 85 29.4 69 20.6 59 59 S 8 13 29.94 1014 10 16 0.00 0.00
12:52 pm 12:52 Mostly Sunny 88 31.1 68 20 52 52 S 12 19 29.93 1014 10 16 0.00 0.00
1:52 pm 13:52 Mostly Sunny 89 31.7 68 20 50 50 SSW 13 20 29.91 1013 10 16 0.00 0.00
2:52 pm 14:52 Sunny 90 32.2 69 20.6 50 50 S 13 20 29.89 1012 10 16 0.00 0.00
3:52 pm 15:52 Sunny 91 32.8 68 20 47 47 S 13 20 29.88 1012 10 16 0.00 0.00
4:52 pm 16:52 Sunny 91 32.8 67 19.4 45 45 S 13 20 29.86 1011 10 16 0.00 0.00
5:52 pm 17:52 Sunny 91 32.8 68 20 47 47 S 12 19 29.85 1011 10 16 0.00 0.00
6:52 pm 18:52 Sunny 90 32.2 68 20 48 48 S 13 20 29.83 1010 10 16 0.00 0.00
7:52 pm 19:52 Sunny 87 30.6 69 20.6 55 55 SSE 14 22 29.83 1010 10 16 0.00 0.00
8:52 pm 20:52 Sunny 84 28.9 70 21.1 63 63 S 14 22 29.81 1010 10 16 0.00 0.00
9:52 pm 21:52 Mostly Clear 82 27.8 70 21.1 67 67 S 10 17 29.82 1010 10 16 0.00 0.00
10:52 pm 22:52 Clear 79 26.1 70 21.1 74 74 S 13 20 29.83 1010 10 16 0.00 0.00
11:52 pm 23:52 Clear 78 25.6 70 21.1 76 76 S 13 20 29.82 1010 10 16 0.00 0.00

Powered by AerisWeather